Flag for United Kingdom Weather past 2 weeks in Southampton, England, United Kingdom

Now
63 °F

Scattered clouds.


Feels Like: 63 °F
Forecast: 54 / 65 °F
Wind: 7 mph from Southwest

Location: Southampton / Weather Centre

Current Time: Aug 28, 2015 at 2:26:04 PM

Latest Report: Aug 28, 2015 at 1:50 PM


Visibility: N/A

Pressure: 30.04 "Hg

Humidity: 64%

Dew point: 50 °F

Location of SouthamptonLocation

Historic Weather in Southampton — Graph

°F

Southampton temperature yesterday

Maximum temperature yesterday: 64 °F (at 4:50 PM)
Minimum temperature yesterday: 54 °F (at 10:20 PM)
Average temperature yesterday: 59 °F

Past Weeks' High & Low Weather Summary

 TemperatureHumidityPressure
High77 °F (Aug 22, 2:50 PM)94% (Aug 14, 5:50 AM)30.15 "Hg (Aug 14, 5:50 AM)
Low41 °F (Aug 28, 6:20 AM)40% (Aug 16, 1:50 PM)29.42 "Hg (Aug 24, 10:20 AM)
Average61 °F77%29.87 "Hg
* Reported Aug 13 12:20 PM — Aug 28 12:50 PM, Southampton, Weather by CustomWeather, © 2015

Note: Actual official high and low records may vary slightly from our data, if they occured in-between our weather recording intervals... More about our weather records

Advertising

Southampton weather history for previous 24 hours

 ConditionsComfort  
Time TempWeatherWind HumidityBarometerVisibility
12:50 PM
Fri, Aug 28
64 °FScattered clouds.7 mph60%30.04 "HgN/A
12:20 PM64 °FScattered clouds.10 mph64%30.04 "HgN/A
11:50 AM63 °FScattered clouds.3 mph68%30.04 "HgN/A
11:20 AM63 °FPassing clouds.3 mph68%30.04 "HgN/A
10:50 AM59 °FScattered showers. Passing clouds.5 mph72%30.04 "HgN/A
10:20 AM59 °FLight rain. Passing clouds.5 mph77%30.01 "HgN/A
9:50 AM59 °FScattered showers. Passing clouds.3 mph82%30.01 "HgN/A
9:20 AM57 °FScattered showers. Passing clouds.1 mph88%30.01 "HgN/A
8:50 AM55 °FPassing clouds.No wind88%30.01 "HgN/A
8:20 AM50 °FPassing clouds.No wind94%30.01 "HgN/A
7:50 AM45 °FPassing clouds.No wind93%29.98 "HgN/A
7:20 AM45 °FPassing clouds.No wind93%29.98 "HgN/A
6:50 AM43 °FFog.No wind93%29.98 "Hg1 mi
6:20 AM41 °FFog.No wind93%29.95 "Hg0 mi
5:50 AM43 °FFog.No wind93%29.95 "Hg0 mi
10:50 PM
Thu, Aug 27
54 °FPassing clouds.No wind88%29.86 "HgN/A
10:20 PM54 °FClear.No wind88%29.86 "Hg10 mi
9:50 PM55 °FPassing clouds.No wind82%29.86 "HgN/A
9:20 PM55 °FScattered showers. Passing clouds.2 mph82%29.83 "HgN/A
8:50 PM57 °FScattered showers. Scattered clouds.5 mph82%29.83 "HgN/A
8:20 PM57 °FScattered showers. Scattered clouds.1 mph82%29.80 "HgN/A
7:50 PM59 °FScattered showers. Scattered clouds.2 mph77%29.80 "HgN/A
7:20 PM61 °FScattered clouds.5 mph72%29.80 "HgN/A
6:50 PM61 °FScattered clouds.6 mph72%29.80 "HgN/A
6:20 PM61 °FScattered clouds.3 mph68%29.77 "HgN/A
5:50 PM63 °FScattered clouds.10 mph64%29.77 "HgN/A
5:20 PM63 °FScattered clouds.12 mph64%29.77 "HgN/A
4:50 PM64 °FScattered clouds.9 mph60%29.77 "HgN/A
4:20 PM63 °FScattered clouds.9 mph64%29.77 "HgN/A
3:50 PM63 °FScattered clouds.12 mph68%29.77 "HgN/A
3:20 PM61 °FScattered clouds.8 mph72%29.77 "HgN/A
2:50 PM61 °FPassing clouds.12 mph68%29.77 "HgN/A
2:20 PM61 °FPassing clouds.12 mph68%29.77 "HgN/A
Weather by CustomWeather, © 2015

See weather overviewHow to use our weather pages